WA8KWD Weather Reports


time (UTC)temp
C
wind
direction
speed
KPH
gust
KPH
rain 1hr
cm
rain 24hr
cm
rain mn
cm
humidity
%
barometer
mb
20260504030027 10 221 0.0 0.0 0.00 0.00 0.00 60 1015.2
20260504024517 10 217 0.0 4.8 0.00 0.00 0.00 60 1015.4
20260504023013 10 240 3.2 8.0 0.00 0.00 0.00 59 1015.7
20260504021509 10 245 4.8 14.5 0.00 0.00 0.00 58 1015.6
20260504020007 9 235 6.4 11.3 0.00 0.00 0.00 57 1015.6
20260504014619 10 198 0.0 0.0 0.00 0.00 0.00 54 1015.0
20260504013103 10 160 0.0 1.6 0.00 0.00 0.00 54 1014.9
20260504011559 10 177 0.0 1.6 0.00 0.00 0.00 53 1015.0
20260504010056 10 192 0.0 0.0 0.00 0.00 0.00 52 1015.0
20260504004547 11 198 0.0 0.0 0.00 0.00 0.00 52 1015.1
20260504003049 11 197 0.0 0.0 0.00 0.00 0.00 51 1015.0
20260504001537 11 208 0.0 1.6 0.00 0.00 0.00 50 1015.0
20260504000032 12 234 0.0 4.8 0.00 0.00 0.00 47 1015.1
20260503234542 12 224 1.6 9.7 0.00 0.00 0.00 47 1015.3
20260503233023 12 233 1.6 9.7 0.00 0.00 0.00 47 1015.3
20260503231520 13 215 0.0 9.7 0.00 0.00 0.00 47 1015.3
20260503230017 13 226 0.0 12.9 0.00 0.00 0.00 46 1015.3
20260503224513 13 238 4.8 12.9 0.00 0.00 0.00 46 1015.4
20260503223005 13 212 6.4 16.1 0.00 0.00 0.00 45 1015.5
20260503221600 13 172 4.8 9.7 0.00 0.00 0.00 46 1015.6
20260503220057 13 206 3.2 11.3 0.00 0.00 0.00 46 1015.7
20260503214551 13 218 6.4 16.1 0.00 0.00 0.00 44 1015.7
20260503213055 14 210 6.4 12.9 0.00 0.00 0.00 42 1015.7
20260503211542 14 246 4.8 17.7 0.00 0.00 0.00 43 1015.7
20260503210039 14 252 6.4 19.3 0.00 0.00 0.00 46 1015.7
20260503204534 14 243 4.8 17.7 0.00 0.00 0.00 43 1015.6
20260503203031 14 228 6.4 16.1 0.00 0.00 0.00 42 1015.8
20260503201526 14 210 1.6 16.1 0.00 0.00 0.00 44 1016.1
20260503200021 14 194 6.4 14.5 0.00 0.00 0.00 41 1016.3
20260503194516 14 251 8.0 14.5 0.00 0.00 0.00 42 1016.6
20260503193013 14 207 8.0 19.3 0.00 0.00 0.00 41 1016.9
20260503191513 15 249 6.4 16.1 0.00 0.00 0.00 40 1017.1
20260503190003 15 223 6.4 17.7 0.00 0.00 0.00 39 1017.4
20260503184610 14 259 6.4 9.7 0.00 0.00 0.00 45 1017.5
20260503183107 14 230 6.4 12.9 0.00 0.00 0.00 43 1017.7
20260503181603 14 229 8.0 17.7 0.00 0.00 0.00 43 1017.8
20260503180046 13 243 1.6 8.0 0.00 0.00 0.00 50 1018.0
20260503174541 13 194 3.2 20.9 0.00 0.00 0.00 46 1018.0
20260503173036 13 243 3.2 11.3 0.00 0.00 0.00 48 1018.3
20260503171532 13 217 4.8 12.9 0.00 0.00 0.00 49 1018.6
20260503081622 1 213 0.0 0.0 0.00 0.00 0.00 1 1019.4
20260503080106 1 214 0.0 0.0 0.00 0.00 0.00 1 1019.4
20260503071535 1 200 0.0 0.0 0.00 0.03 0.00 1 1019.3
20260503054513 2 309 0.0 0.0 0.00 0.03 0.00 6 1019.3
20260503053004 2 309 0.0 0.0 0.00 0.03 0.00 15 1019.5
20260503051600 2 317 0.0 0.0 0.00 0.03 0.00 16 1019.5
20260503050056 2 318 0.0 0.0 0.00 0.03 0.00 22 1019.5
20260503044604 2 318 0.0 0.0 0.00 0.03 0.00 24 1019.7
20260503043054 2 318 0.0 0.0 0.00 0.03 0.00 35 1019.6
20260503041551 2 318 0.0 0.0 0.00 0.03 0.00 32 1019.7
20260503040049 2 318 0.0 0.0 0.00 0.03 0.00 35 1019.8
20260503034549 2 318 0.0 0.0 0.00 0.03 0.03 36 1019.8
20260503033055 2 318 0.0 0.0 0.00 0.03 0.03 39 1019.7
20260503031542 2 318 0.0 0.0 0.00 0.03 0.03 45 1019.8